Showing default

COSMOS 1579, 15085

Orbit data source: Space-Track

COSMOS 1579, 15085 is a payload satellite owned by VMF (CIS) in LEO that was launched on Fri, 29 Jun 1984 UTC via a TSIKLON-2 launch vehicle from the Tyuratam Missile And Space Complex (TTMTR). Payload-class satellites include a variety of spacecraft equipped with specific instruments for various scientific and technological missions. These include communications satellites like Starlink; space stations such as the ISS; scientific satellites like the Hubble; Earth observation satellites from companies like Planet Labs, Umbra, and HawkEye 360; GPS; miniature CubeSats for education and research; and military/defense satellites.

Loading next visibility...
Identifier
15085, 1984-069A
Orbit
LEO
Country
Flag of CISCIS
Related business
Manufacturer
Kometa
Mission
Defense Sigint
Bus & Motor
US-A REACTOR, Unknown motor
Mass
4,300 kg wet, 1,154 kg dry
Launch date (UTC)
1984-06-29 (41 years ago)
Launch vehicle
TSIKLON-2
Launch site
Tyuratam Missile And Space Complex (TTMTR)
Object type
Payload
Rocket body
Debris
Shape & HBR
Cone + Cyl, 2.9 m
Radar Cross Section
6.586 m², Large (>1 m²)

Expand to show TLE details & history
Last TLE update: 18 hours ago

TLE from 18 hours ago
0 COSMOS 1579
1 15085U 84069A   25260.87396759 -.00000053  00000-0  30674-4 0  9998
2 15085  65.0498  70.4923 0035995 140.9526 219.4145 13.86199638 88035
Epoch: 2025-09-17T20:58Z
TLE epoch observation values (Epoch: 2025-09-17T20:58:30.799Z)
Latitude
0.00001°
Longitude
118.82031°
Altitude
964.31 km
Speed
7.36 km/s
True Right ascension
04h 41m 58s
True Declination
0° 00' 00"
Sunlit
Object was in daylight at epoch
Visualization orbit readout
Latitude
Unknown
Longitude
Unknown
Altitude
Unknown
Speed
Unknown
Apparent Right ascension
Unknown
Apparent Declination
Unknown
Sunlit
N/A
Visualization observer readout
Local Sidereal Time
08:08:24
Azimuth
Unknown
Elevation
Unknown
Doppler factor
Unknown
Orbital elements
Apogee altitude
966.925 km
Perigee altitude
914.238 km
Semi-major axis
7,318.719 km
Eccentricity
0.0036
Inclination
65.0498°
RAAN
70.4923°
Arg. of periapsis
140.9526°
True anomaly
219.15352°
Mean anomaly
219.4145°
Eccentric anomaly
219.28392°
Mean motion
3.4665 °/min
Orbital period
103.85 mins
BSTAR
0.000030674
Loading maneuver chart data...
Computing Atmospheric mass density...

Documentation

Showing up to 5 results
|